Change the Weather History Date:

Monday, February 10, 2014

  Actual Average Record
Temperature  
Mean Temperature -8 °F -  
Max Temperature 8 °F 31 °F 43 °F (1999)
Min Temperature -25 °F 9 °F -25 °F (2014)
Degree Days  
Heating Degree Days 73 45  
Month to date heating degree days 680 462  
Since 1 July heating degree days 5869 5538  
Moisture  
Dew Point -8 °F    
Average Humidity 79    
Maximum Humidity 95    
Minimum Humidity 72    
Precipitation  
Precipitation T in 0.02 in 0.06 in (2004)
Month to date precipitation T 0.19  
Year to date precipitation 0.14 0.50  
Sea Level Pressure  
Sea Level Pressure 30.39 in    
Wind  
Wind Speed 7 mph (SSE)    
Max Wind Speed 14 mph    
Max Gust Speed 17 mph    
Visibility 10 miles    
Events Snow    
T = Trace of Precipitation, MM = Missing Value Source: NWS Daily Summary

Daily Weather History Graph

Daily Weather History Graph

Search for Another Location

Airport or City:

Trip Planner

Search our weather history database for the weather conditions in past years. The results will help you decide how hot, cold, wet, or windy it might be!

Date:

Astronomy

Feb. 10, 2014 Rise Set
Actual Time 7:00 AM MST 5:09 PM MST
Civil Twilight 6:29 AM MST 5:40 PM MST
Nautical Twilight 5:54 AM MST 6:15 PM MST
Astronomical Twilight 5:19 AM MST 6:50 PM MST
Moon 1:35 PM MST (2/10) 4:01 AM MST (2/10)
Length of Visible Light 11h 11m
Length of Day
10h 08m
Waxing Gibbous, 85% of the Moon is Illuminated
Feb 10
Waxing Gibbous
Feb 14
Full
Feb 22
Last Quarter
Mar 1
New
Mar 8
First Quarter

Hourly Weather History & Observations

Time (MST) Temp. Windchill Dew Point Humidity Pressure Visibility Wind Dir Wind Speed Gust Speed Precip Events Conditions
12:53 AM -20.9 °F - -25.1 °F 81% 30.49 in 10.0 mi Calm Calm - N/A   Clear
1:53 AM -23.1 °F - -27.9 °F 78% 30.50 in 10.0 mi Calm Calm - N/A   Clear
2:53 AM -22.0 °F - -27.0 °F 77% 30.48 in 10.0 mi Calm Calm - N/A   Clear
3:53 AM -23.1 °F - -29.9 °F 70% 30.47 in 10.0 mi Calm Calm - N/A   Clear
4:53 AM -20.9 °F - -26.0 °F 77% 30.47 in 10.0 mi Calm Calm - N/A   Clear
5:53 AM -16.1 °F - -22.0 °F 74% 30.46 in 10.0 mi Calm Calm - N/A   Mostly Cloudy
6:53 AM -5.1 °F -19.1 °F -9.9 °F 80% 30.45 in 10.0 mi SE 6.9 mph - N/A   Overcast
7:53 AM -2.9 °F -17.7 °F -7.1 °F 82% 30.45 in 10.0 mi SSE 8.1 mph - N/A   Overcast
8:53 AM -0.9 °F -16.4 °F -6.0 °F 79% 30.44 in 6.0 mi SE 9.2 mph - 0.00 in Snow Light Snow
9:53 AM 1.0 °F -14.9 °F -5.1 °F 75% 30.46 in 7.0 mi SSE 10.4 mph - 0.00 in   Overcast
10:53 AM 1.9 °F -14.7 °F -4.0 °F 76% 30.45 in 5.0 mi SSE 11.5 mph - 0.00 in   Haze
11:36 AM 3.0 °F -12.5 °F -2.9 °F 76% 30.21 in 9.0 mi SSE 10.4 mph - N/A   Overcast
11:53 AM 3.9 °F -10.4 °F -2.9 °F 73% 30.44 in 10.0 mi SSE 9.2 mph - N/A   Mostly Cloudy
12:02 PM 3.9 °F -10.4 °F -2.0 °F 76% 30.20 in 10.0 mi SSE 9.2 mph - N/A   Scattered Clouds
12:53 PM 6.1 °F -9.5 °F -0.9 °F 73% 30.41 in 10.0 mi SE 11.5 mph - N/A   Clear
1:53 PM 8.1 °F -7.0 °F 1.0 °F 73% 30.40 in 10.0 mi SSE 11.5 mph - N/A   Clear
2:53 PM 8.1 °F -7.0 °F 1.0 °F 73% 30.41 in 10.0 mi SSE 11.5 mph - N/A   Clear
3:53 PM 7.0 °F -9.1 °F 1.0 °F 77% 30.40 in 10.0 mi SSE 12.7 mph - N/A   Clear
4:53 PM 5.0 °F -8.1 °F -0.0 °F 80% 30.40 in 10.0 mi SSE 8.1 mph - N/A   Clear
5:53 PM 1.9 °F -11.8 °F -0.9 °F 88% 30.39 in 10.0 mi SSE 8.1 mph - N/A   Clear
6:53 PM 1.0 °F -12.9 °F -2.0 °F 87% 30.36 in 10.0 mi SSE 8.1 mph - N/A   Clear
7:53 PM -0.9 °F -14.1 °F -5.1 °F 83% 30.34 in 10.0 mi SSE 6.9 mph - N/A   Clear
8:53 PM -0.9 °F -15.3 °F -4.0 °F 87% 30.32 in 10.0 mi SSE 8.1 mph - N/A   Clear
9:53 PM -0.0 °F -14.2 °F -2.9 °F 88% 30.27 in 10.0 mi SSE 8.1 mph - N/A   Clear
10:53 PM 1.0 °F -11.7 °F -2.9 °F 83% 30.25 in 10.0 mi South 6.9 mph - N/A   Clear
11:53 PM 1.0 °F -11.7 °F -2.9 °F 83% 30.21 in 10.0 mi South 6.9 mph - N/A   Clear